Index of /20260430/WXO-DD/model_rdps/10km/06/023
Name Last modified Size Description
Parent Directory -
20260430T06Z_MSC_RDPS_AbsoluteVorticity_IsbL-0250_RLatLon0.09_PT023H.grib2 2026-04-30 08:46 610K
20260430T06Z_MSC_RDPS_AbsoluteVorticity_IsbL-0500_RLatLon0.09_PT023H.grib2 2026-04-30 08:46 562K
20260430T06Z_MSC_RDPS_AbsoluteVorticity_IsbL-0700_RLatLon0.09_PT023H.grib2 2026-04-30 08:46 622K
20260430T06Z_MSC_RDPS_AbsoluteVorticity_IsbL-0850_RLatLon0.09_PT023H.grib2 2026-04-30 08:46 768K
20260430T06Z_MSC_RDPS_AirTemp_AGL-120m_RLatLon0.09_PT023H.grib2 2026-04-30 08:46 369K
20260430T06Z_MSC_RDPS_AirTemp_AGL-2m_RLatLon0.09_PT023H.grib2 2026-04-30 08:46 626K
20260430T06Z_MSC_RDPS_AirTemp_AGL-40m_RLatLon0.09_PT023H.grib2 2026-04-30 08:46 402K
20260430T06Z_MSC_RDPS_AirTemp_AGL-80m_RLatLon0.09_PT023H.grib2 2026-04-30 08:46 376K
20260430T06Z_MSC_RDPS_AirTemp_IsbL-0001_RLatLon0.09_PT023H.grib2 2026-04-30 08:46 295K
20260430T06Z_MSC_RDPS_AirTemp_IsbL-0005_RLatLon0.09_PT023H.grib2 2026-04-30 08:46 286K
20260430T06Z_MSC_RDPS_AirTemp_IsbL-0010_RLatLon0.09_PT023H.grib2 2026-04-30 08:46 298K
20260430T06Z_MSC_RDPS_AirTemp_IsbL-0020_RLatLon0.09_PT023H.grib2 2026-04-30 08:46 311K
20260430T06Z_MSC_RDPS_AirTemp_IsbL-0030_RLatLon0.09_PT023H.grib2 2026-04-30 08:46 334K
20260430T06Z_MSC_RDPS_AirTemp_IsbL-0050_RLatLon0.09_PT023H.grib2 2026-04-30 08:46 309K
20260430T06Z_MSC_RDPS_AirTemp_IsbL-0100_RLatLon0.09_PT023H.grib2 2026-04-30 08:46 421K
20260430T06Z_MSC_RDPS_AirTemp_IsbL-0150_RLatLon0.09_PT023H.grib2 2026-04-30 08:46 421K
20260430T06Z_MSC_RDPS_AirTemp_IsbL-0175_RLatLon0.09_PT023H.grib2 2026-04-30 08:46 411K
20260430T06Z_MSC_RDPS_AirTemp_IsbL-0200_RLatLon0.09_PT023H.grib2 2026-04-30 08:46 415K
20260430T06Z_MSC_RDPS_AirTemp_IsbL-0225_RLatLon0.09_PT023H.grib2 2026-04-30 08:46 416K
20260430T06Z_MSC_RDPS_AirTemp_IsbL-0250_RLatLon0.09_PT023H.grib2 2026-04-30 08:46 425K
20260430T06Z_MSC_RDPS_AirTemp_IsbL-0275_RLatLon0.09_PT023H.grib2 2026-04-30 08:46 405K
20260430T06Z_MSC_RDPS_AirTemp_IsbL-0300_RLatLon0.09_PT023H.grib2 2026-04-30 08:46 411K
20260430T06Z_MSC_RDPS_AirTemp_IsbL-0350_RLatLon0.09_PT023H.grib2 2026-04-30 08:46 424K
20260430T06Z_MSC_RDPS_AirTemp_IsbL-0400_RLatLon0.09_PT023H.grib2 2026-04-30 08:46 425K
20260430T06Z_MSC_RDPS_AirTemp_IsbL-0450_RLatLon0.09_PT023H.grib2 2026-04-30 08:46 396K
20260430T06Z_MSC_RDPS_AirTemp_IsbL-0500_RLatLon0.09_PT023H.grib2 2026-04-30 08:46 406K
20260430T06Z_MSC_RDPS_AirTemp_IsbL-0550_RLatLon0.09_PT023H.grib2 2026-04-30 08:46 424K
20260430T06Z_MSC_RDPS_AirTemp_IsbL-0600_RLatLon0.09_PT023H.grib2 2026-04-30 08:46 446K
20260430T06Z_MSC_RDPS_AirTemp_IsbL-0650_RLatLon0.09_PT023H.grib2 2026-04-30 08:46 460K
20260430T06Z_MSC_RDPS_AirTemp_IsbL-0700_RLatLon0.09_PT023H.grib2 2026-04-30 08:46 376K
20260430T06Z_MSC_RDPS_AirTemp_IsbL-0750_RLatLon0.09_PT023H.grib2 2026-04-30 08:46 406K
20260430T06Z_MSC_RDPS_AirTemp_IsbL-0800_RLatLon0.09_PT023H.grib2 2026-04-30 08:46 444K
20260430T06Z_MSC_RDPS_AirTemp_IsbL-0850_RLatLon0.09_PT023H.grib2 2026-04-30 08:46 488K
20260430T06Z_MSC_RDPS_AirTemp_IsbL-0875_RLatLon0.09_PT023H.grib2 2026-04-30 08:46 508K
20260430T06Z_MSC_RDPS_AirTemp_IsbL-0900_RLatLon0.09_PT023H.grib2 2026-04-30 08:46 518K
20260430T06Z_MSC_RDPS_AirTemp_IsbL-0925_RLatLon0.09_PT023H.grib2 2026-04-30 08:46 517K
20260430T06Z_MSC_RDPS_AirTemp_IsbL-0950_RLatLon0.09_PT023H.grib2 2026-04-30 08:46 520K
20260430T06Z_MSC_RDPS_AirTemp_IsbL-0970_RLatLon0.09_PT023H.grib2 2026-04-30 08:46 514K
20260430T06Z_MSC_RDPS_AirTemp_IsbL-0985_RLatLon0.09_PT023H.grib2 2026-04-30 08:46 504K
20260430T06Z_MSC_RDPS_AirTemp_IsbL-1000_RLatLon0.09_PT023H.grib2 2026-04-30 08:46 486K
20260430T06Z_MSC_RDPS_AirTemp_IsbL-1015_RLatLon0.09_PT023H.grib2 2026-04-30 08:46 483K
20260430T06Z_MSC_RDPS_Albedo_Sfc_RLatLon0.09_PT023H.grib2 2026-04-30 08:46 158K
20260430T06Z_MSC_RDPS_CAPE_Sfc_RLatLon0.09_PT023H.grib2 2026-04-30 08:46 1.6M
20260430T06Z_MSC_RDPS_CIN_Sfc_RLatLon0.09_PT023H.grib2 2026-04-30 08:46 1.1M
20260430T06Z_MSC_RDPS_CloudWater_EAtm_RLatLon0.09_PT023H.grib2 2026-04-30 08:46 219K
20260430T06Z_MSC_RDPS_ConvectivePrecip-Accum_Sfc_RLatLon0.09_PT023H.grib2 2026-04-30 08:46 774K
20260430T06Z_MSC_RDPS_DewPointDepression_AGL-2m_RLatLon0.09_PT023H.grib2 2026-04-30 08:46 392K
20260430T06Z_MSC_RDPS_DewPointDepression_IsbL-0001_RLatLon0.09_PT023H.grib2 2026-04-30 08:46 193
20260430T06Z_MSC_RDPS_DewPointDepression_IsbL-0005_RLatLon0.09_PT023H.grib2 2026-04-30 08:46 193
20260430T06Z_MSC_RDPS_DewPointDepression_IsbL-0010_RLatLon0.09_PT023H.grib2 2026-04-30 08:46 193
20260430T06Z_MSC_RDPS_DewPointDepression_IsbL-0020_RLatLon0.09_PT023H.grib2 2026-04-30 08:46 193
20260430T06Z_MSC_RDPS_DewPointDepression_IsbL-0030_RLatLon0.09_PT023H.grib2 2026-04-30 08:46 193
20260430T06Z_MSC_RDPS_DewPointDepression_IsbL-0050_RLatLon0.09_PT023H.grib2 2026-04-30 08:46 82K
20260430T06Z_MSC_RDPS_DewPointDepression_IsbL-0100_RLatLon0.09_PT023H.grib2 2026-04-30 08:46 128K
20260430T06Z_MSC_RDPS_DewPointDepression_IsbL-0150_RLatLon0.09_PT023H.grib2 2026-04-30 08:46 148K
20260430T06Z_MSC_RDPS_DewPointDepression_IsbL-0175_RLatLon0.09_PT023H.grib2 2026-04-30 08:46 180K
20260430T06Z_MSC_RDPS_DewPointDepression_IsbL-0200_RLatLon0.09_PT023H.grib2 2026-04-30 08:46 216K
20260430T06Z_MSC_RDPS_DewPointDepression_IsbL-0225_RLatLon0.09_PT023H.grib2 2026-04-30 08:46 260K
20260430T06Z_MSC_RDPS_DewPointDepression_IsbL-0250_RLatLon0.09_PT023H.grib2 2026-04-30 08:46 301K
20260430T06Z_MSC_RDPS_DewPointDepression_IsbL-0275_RLatLon0.09_PT023H.grib2 2026-04-30 08:46 306K
20260430T06Z_MSC_RDPS_DewPointDepression_IsbL-0300_RLatLon0.09_PT023H.grib2 2026-04-30 08:46 328K
20260430T06Z_MSC_RDPS_DewPointDepression_IsbL-0350_RLatLon0.09_PT023H.grib2 2026-04-30 08:46 332K
20260430T06Z_MSC_RDPS_DewPointDepression_IsbL-0400_RLatLon0.09_PT023H.grib2 2026-04-30 08:46 340K
20260430T06Z_MSC_RDPS_DewPointDepression_IsbL-0450_RLatLon0.09_PT023H.grib2 2026-04-30 08:46 347K
20260430T06Z_MSC_RDPS_DewPointDepression_IsbL-0500_RLatLon0.09_PT023H.grib2 2026-04-30 08:46 348K
20260430T06Z_MSC_RDPS_DewPointDepression_IsbL-0550_RLatLon0.09_PT023H.grib2 2026-04-30 08:46 362K
20260430T06Z_MSC_RDPS_DewPointDepression_IsbL-0600_RLatLon0.09_PT023H.grib2 2026-04-30 08:46 377K
20260430T06Z_MSC_RDPS_DewPointDepression_IsbL-0650_RLatLon0.09_PT023H.grib2 2026-04-30 08:46 383K
20260430T06Z_MSC_RDPS_DewPointDepression_IsbL-0700_RLatLon0.09_PT023H.grib2 2026-04-30 08:46 393K
20260430T06Z_MSC_RDPS_DewPointDepression_IsbL-0750_RLatLon0.09_PT023H.grib2 2026-04-30 08:46 410K
20260430T06Z_MSC_RDPS_DewPointDepression_IsbL-0800_RLatLon0.09_PT023H.grib2 2026-04-30 08:46 438K
20260430T06Z_MSC_RDPS_DewPointDepression_IsbL-0850_RLatLon0.09_PT023H.grib2 2026-04-30 08:46 462K
20260430T06Z_MSC_RDPS_DewPointDepression_IsbL-0875_RLatLon0.09_PT023H.grib2 2026-04-30 08:46 467K
20260430T06Z_MSC_RDPS_DewPointDepression_IsbL-0900_RLatLon0.09_PT023H.grib2 2026-04-30 08:46 460K
20260430T06Z_MSC_RDPS_DewPointDepression_IsbL-0925_RLatLon0.09_PT023H.grib2 2026-04-30 08:46 446K
20260430T06Z_MSC_RDPS_DewPointDepression_IsbL-0950_RLatLon0.09_PT023H.grib2 2026-04-30 08:46 441K
20260430T06Z_MSC_RDPS_DewPointDepression_IsbL-0970_RLatLon0.09_PT023H.grib2 2026-04-30 08:46 431K
20260430T06Z_MSC_RDPS_DewPointDepression_IsbL-0985_RLatLon0.09_PT023H.grib2 2026-04-30 08:46 425K
20260430T06Z_MSC_RDPS_DewPointDepression_IsbL-1000_RLatLon0.09_PT023H.grib2 2026-04-30 08:46 417K
20260430T06Z_MSC_RDPS_DewPointDepression_IsbL-1015_RLatLon0.09_PT023H.grib2 2026-04-30 08:46 408K
20260430T06Z_MSC_RDPS_DewPoint_AGL-2m_RLatLon0.09_PT023H.grib2 2026-04-30 08:46 302K
20260430T06Z_MSC_RDPS_DownwardLongwaveRadiationFlux-Accum_Sfc_RLatLon0.09_PT023H.grib2 2026-04-30 08:46 423K
20260430T06Z_MSC_RDPS_DownwardShortwaveRadiationFlux-Accum_NTAtm_RLatLon0.09_PT023H.grib2 2026-04-30 08:46 125K
20260430T06Z_MSC_RDPS_DownwardShortwaveRadiationFlux-Accum_Sfc_RLatLon0.09_PT023H.grib2 2026-04-30 08:46 625K
20260430T06Z_MSC_RDPS_FreezingRain-Accum1h_Sfc_RLatLon0.09_PT023H.grib2 2026-04-30 08:46 34K
20260430T06Z_MSC_RDPS_FreezingRain-Accum_Sfc_RLatLon0.09_PT023H.grib2 2026-04-30 08:46 106K
20260430T06Z_MSC_RDPS_GeopotentialHeight_IsbL-0001_RLatLon0.09_PT023H.grib2 2026-04-30 08:46 234K
20260430T06Z_MSC_RDPS_GeopotentialHeight_IsbL-0005_RLatLon0.09_PT023H.grib2 2026-04-30 08:46 297K
20260430T06Z_MSC_RDPS_GeopotentialHeight_IsbL-0010_RLatLon0.09_PT023H.grib2 2026-04-30 08:46 299K
20260430T06Z_MSC_RDPS_GeopotentialHeight_IsbL-0020_RLatLon0.09_PT023H.grib2 2026-04-30 08:46 298K
20260430T06Z_MSC_RDPS_GeopotentialHeight_IsbL-0030_RLatLon0.09_PT023H.grib2 2026-04-30 08:46 300K
20260430T06Z_MSC_RDPS_GeopotentialHeight_IsbL-0050_RLatLon0.09_PT023H.grib2 2026-04-30 08:46 303K
20260430T06Z_MSC_RDPS_GeopotentialHeight_IsbL-0100_RLatLon0.09_PT023H.grib2 2026-04-30 08:46 281K
20260430T06Z_MSC_RDPS_GeopotentialHeight_IsbL-0150_RLatLon0.09_PT023H.grib2 2026-04-30 08:46 224K
20260430T06Z_MSC_RDPS_GeopotentialHeight_IsbL-0175_RLatLon0.09_PT023H.grib2 2026-04-30 08:46 228K
20260430T06Z_MSC_RDPS_GeopotentialHeight_IsbL-0200_RLatLon0.09_PT023H.grib2 2026-04-30 08:46 261K
20260430T06Z_MSC_RDPS_GeopotentialHeight_IsbL-0225_RLatLon0.09_PT023H.grib2 2026-04-30 08:46 263K
20260430T06Z_MSC_RDPS_GeopotentialHeight_IsbL-0250_RLatLon0.09_PT023H.grib2 2026-04-30 08:46 264K
20260430T06Z_MSC_RDPS_GeopotentialHeight_IsbL-0275_RLatLon0.09_PT023H.grib2 2026-04-30 08:46 264K
20260430T06Z_MSC_RDPS_GeopotentialHeight_IsbL-0300_RLatLon0.09_PT023H.grib2 2026-04-30 08:46 263K
20260430T06Z_MSC_RDPS_GeopotentialHeight_IsbL-0350_RLatLon0.09_PT023H.grib2 2026-04-30 08:46 230K
20260430T06Z_MSC_RDPS_GeopotentialHeight_IsbL-0400_RLatLon0.09_PT023H.grib2 2026-04-30 08:46 226K
20260430T06Z_MSC_RDPS_GeopotentialHeight_IsbL-0450_RLatLon0.09_PT023H.grib2 2026-04-30 08:46 293K
20260430T06Z_MSC_RDPS_GeopotentialHeight_IsbL-0500_RLatLon0.09_PT023H.grib2 2026-04-30 08:46 289K
20260430T06Z_MSC_RDPS_GeopotentialHeight_IsbL-0550_RLatLon0.09_PT023H.grib2 2026-04-30 08:46 285K
20260430T06Z_MSC_RDPS_GeopotentialHeight_IsbL-0600_RLatLon0.09_PT023H.grib2 2026-04-30 08:46 282K
20260430T06Z_MSC_RDPS_GeopotentialHeight_IsbL-0650_RLatLon0.09_PT023H.grib2 2026-04-30 08:46 252K
20260430T06Z_MSC_RDPS_GeopotentialHeight_IsbL-0700_RLatLon0.09_PT023H.grib2 2026-04-30 08:46 332K
20260430T06Z_MSC_RDPS_GeopotentialHeight_IsbL-0750_RLatLon0.09_PT023H.grib2 2026-04-30 08:46 334K
20260430T06Z_MSC_RDPS_GeopotentialHeight_IsbL-0800_RLatLon0.09_PT023H.grib2 2026-04-30 08:46 341K
20260430T06Z_MSC_RDPS_GeopotentialHeight_IsbL-0850_RLatLon0.09_PT023H.grib2 2026-04-30 08:46 349K
20260430T06Z_MSC_RDPS_GeopotentialHeight_IsbL-0875_RLatLon0.09_PT023H.grib2 2026-04-30 08:46 350K
20260430T06Z_MSC_RDPS_GeopotentialHeight_IsbL-0900_RLatLon0.09_PT023H.grib2 2026-04-30 08:46 355K
20260430T06Z_MSC_RDPS_GeopotentialHeight_IsbL-0925_RLatLon0.09_PT023H.grib2 2026-04-30 08:46 359K
20260430T06Z_MSC_RDPS_GeopotentialHeight_IsbL-0950_RLatLon0.09_PT023H.grib2 2026-04-30 08:46 361K
20260430T06Z_MSC_RDPS_GeopotentialHeight_IsbL-0970_RLatLon0.09_PT023H.grib2 2026-04-30 08:46 368K
20260430T06Z_MSC_RDPS_GeopotentialHeight_IsbL-0985_RLatLon0.09_PT023H.grib2 2026-04-30 08:46 376K
20260430T06Z_MSC_RDPS_GeopotentialHeight_IsbL-1000_RLatLon0.09_PT023H.grib2 2026-04-30 08:46 387K
20260430T06Z_MSC_RDPS_GeopotentialHeight_IsbL-1015_RLatLon0.09_PT023H.grib2 2026-04-30 08:46 401K
20260430T06Z_MSC_RDPS_Humidex_Sfc_RLatLon0.09_PT023H.grib2 2026-04-30 08:46 2.4M
20260430T06Z_MSC_RDPS_IcePellets-Accum1h_Sfc_RLatLon0.09_PT023H.grib2 2026-04-30 08:46 3.6K
20260430T06Z_MSC_RDPS_IcePellets-Accum_Sfc_RLatLon0.09_PT023H.grib2 2026-04-30 08:46 7.3K
20260430T06Z_MSC_RDPS_KIndex_Sfc_RLatLon0.09_PT023H.grib2 2026-04-30 08:46 2.5M
20260430T06Z_MSC_RDPS_LatentHeatNetFlux_Sfc_RLatLon0.09_PT023H.grib2 2026-04-30 08:46 393K
20260430T06Z_MSC_RDPS_LiftedIndex-MU-VT_IsbL-0500_RLatLon0.09_PT023H.grib2 2026-04-30 08:46 2.4M
20260430T06Z_MSC_RDPS_NetLongwaveRadiationFlux-Accum_Sfc_RLatLon0.09_PT023H.grib2 2026-04-30 08:46 563K
20260430T06Z_MSC_RDPS_NetShortwaveRadiationFlux-Accum_Sfc_RLatLon0.09_PT023H.grib2 2026-04-30 08:46 623K
20260430T06Z_MSC_RDPS_PlanetaryBoundaryLayerHeight_Sfc_RLatLon0.09_PT023H.grib2 2026-04-30 08:46 1.1M
20260430T06Z_MSC_RDPS_Precip-Accum1h_Sfc_RLatLon0.09_PT023H.grib2 2026-04-30 08:46 1.2M
20260430T06Z_MSC_RDPS_Precip-Accum_Sfc_RLatLon0.09_PT023H.grib2 2026-04-30 08:46 1.7M
20260430T06Z_MSC_RDPS_PrecipRate_Sfc_RLatLon0.09_PT023H.grib2 2026-04-30 08:46 169K
20260430T06Z_MSC_RDPS_PrecipType-Instant_Sfc_RLatLon0.09_PT023H.grib2 2026-04-30 08:46 559K
20260430T06Z_MSC_RDPS_Pressure-Trend3h_Sfc_RLatLon0.09_PT023H.grib2 2026-04-30 08:46 1.2M
20260430T06Z_MSC_RDPS_Pressure_MSL_RLatLon0.09_PT023H.grib2 2026-04-30 08:46 320K
20260430T06Z_MSC_RDPS_Pressure_PVU-1.5_RLatLon0.09_PT023H.grib2 2026-04-30 08:46 2.3M
20260430T06Z_MSC_RDPS_Pressure_PVU-1_RLatLon0.09_PT023H.grib2 2026-04-30 08:46 2.4M
20260430T06Z_MSC_RDPS_Pressure_PVU-2_RLatLon0.09_PT023H.grib2 2026-04-30 08:46 2.4M
20260430T06Z_MSC_RDPS_Pressure_Sfc_RLatLon0.09_PT023H.grib2 2026-04-30 08:46 498K
20260430T06Z_MSC_RDPS_RadiativeTemp_Sfc_RLatLon0.09_PT023H.grib2 2026-04-30 08:46 300K
20260430T06Z_MSC_RDPS_Rain-Accum1h_Sfc_RLatLon0.09_PT023H.grib2 2026-04-30 08:46 579K
20260430T06Z_MSC_RDPS_Rain-Accum_Sfc_RLatLon0.09_PT023H.grib2 2026-04-30 08:46 1.3M
20260430T06Z_MSC_RDPS_RelativeHumidity_AGL-2m_RLatLon0.09_PT023H.grib2 2026-04-30 08:46 1.0M
20260430T06Z_MSC_RDPS_RelativeHumidity_IsbL-0010_RLatLon0.09_PT023H.grib2 2026-04-30 08:46 639K
20260430T06Z_MSC_RDPS_RelativeHumidity_IsbL-0020_RLatLon0.09_PT023H.grib2 2026-04-30 08:46 676K
20260430T06Z_MSC_RDPS_RelativeHumidity_IsbL-0030_RLatLon0.09_PT023H.grib2 2026-04-30 08:46 601K
20260430T06Z_MSC_RDPS_RelativeHumidity_IsbL-0050_RLatLon0.09_PT023H.grib2 2026-04-30 08:46 363K
20260430T06Z_MSC_RDPS_RelativeHumidity_IsbL-0100_RLatLon0.09_PT023H.grib2 2026-04-30 08:46 283K
20260430T06Z_MSC_RDPS_RelativeHumidity_IsbL-0150_RLatLon0.09_PT023H.grib2 2026-04-30 08:46 405K
20260430T06Z_MSC_RDPS_RelativeHumidity_IsbL-0175_RLatLon0.09_PT023H.grib2 2026-04-30 08:46 471K
20260430T06Z_MSC_RDPS_RelativeHumidity_IsbL-0200_RLatLon0.09_PT023H.grib2 2026-04-30 08:46 551K
20260430T06Z_MSC_RDPS_RelativeHumidity_IsbL-0225_RLatLon0.09_PT023H.grib2 2026-04-30 08:46 624K
20260430T06Z_MSC_RDPS_RelativeHumidity_IsbL-0250_RLatLon0.09_PT023H.grib2 2026-04-30 08:46 699K
20260430T06Z_MSC_RDPS_RelativeHumidity_IsbL-0275_RLatLon0.09_PT023H.grib2 2026-04-30 08:46 723K
20260430T06Z_MSC_RDPS_RelativeHumidity_IsbL-0300_RLatLon0.09_PT023H.grib2 2026-04-30 08:46 770K
20260430T06Z_MSC_RDPS_RelativeHumidity_IsbL-0350_RLatLon0.09_PT023H.grib2 2026-04-30 08:46 786K
20260430T06Z_MSC_RDPS_RelativeHumidity_IsbL-0400_RLatLon0.09_PT023H.grib2 2026-04-30 08:46 796K
20260430T06Z_MSC_RDPS_RelativeHumidity_IsbL-0450_RLatLon0.09_PT023H.grib2 2026-04-30 08:46 799K
20260430T06Z_MSC_RDPS_RelativeHumidity_IsbL-0500_RLatLon0.09_PT023H.grib2 2026-04-30 08:46 798K
20260430T06Z_MSC_RDPS_RelativeHumidity_IsbL-0550_RLatLon0.09_PT023H.grib2 2026-04-30 08:46 828K
20260430T06Z_MSC_RDPS_RelativeHumidity_IsbL-0600_RLatLon0.09_PT023H.grib2 2026-04-30 08:46 847K
20260430T06Z_MSC_RDPS_RelativeHumidity_IsbL-0650_RLatLon0.09_PT023H.grib2 2026-04-30 08:46 862K
20260430T06Z_MSC_RDPS_RelativeHumidity_IsbL-0700_RLatLon0.09_PT023H.grib2 2026-04-30 08:46 886K
20260430T06Z_MSC_RDPS_RelativeHumidity_IsbL-0750_RLatLon0.09_PT023H.grib2 2026-04-30 08:46 929K
20260430T06Z_MSC_RDPS_RelativeHumidity_IsbL-0800_RLatLon0.09_PT023H.grib2 2026-04-30 08:46 1.0M
20260430T06Z_MSC_RDPS_RelativeHumidity_IsbL-0850_RLatLon0.09_PT023H.grib2 2026-04-30 08:46 1.0M
20260430T06Z_MSC_RDPS_RelativeHumidity_IsbL-0875_RLatLon0.09_PT023H.grib2 2026-04-30 08:46 1.0M
20260430T06Z_MSC_RDPS_RelativeHumidity_IsbL-0900_RLatLon0.09_PT023H.grib2 2026-04-30 08:46 1.1M
20260430T06Z_MSC_RDPS_RelativeHumidity_IsbL-0925_RLatLon0.09_PT023H.grib2 2026-04-30 08:46 1.0M
20260430T06Z_MSC_RDPS_RelativeHumidity_IsbL-0950_RLatLon0.09_PT023H.grib2 2026-04-30 08:46 1.1M
20260430T06Z_MSC_RDPS_RelativeHumidity_IsbL-0970_RLatLon0.09_PT023H.grib2 2026-04-30 08:46 1.0M
20260430T06Z_MSC_RDPS_RelativeHumidity_IsbL-0985_RLatLon0.09_PT023H.grib2 2026-04-30 08:46 1.0M
20260430T06Z_MSC_RDPS_RelativeHumidity_IsbL-1000_RLatLon0.09_PT023H.grib2 2026-04-30 08:46 1.0M
20260430T06Z_MSC_RDPS_RelativeHumidity_IsbL-1015_RLatLon0.09_PT023H.grib2 2026-04-30 08:46 1.0M
20260430T06Z_MSC_RDPS_Runoff-Accum_Sfc_RLatLon0.09_PT023H.grib2 2026-04-30 08:46 50K
20260430T06Z_MSC_RDPS_SWEATIndex_Sfc_RLatLon0.09_PT023H.grib2 2026-04-30 08:46 2.4M
20260430T06Z_MSC_RDPS_SeeingIndex_EAtm_RLatLon0.09_PT023H.grib2 2026-04-30 08:46 1.0M
20260430T06Z_MSC_RDPS_SensibleHeatNetFlux_Sfc_RLatLon0.09_PT023H.grib2 2026-04-30 08:46 282K
20260430T06Z_MSC_RDPS_ShowalterIndex_IsbL-0500_RLatLon0.09_PT023H.grib2 2026-04-30 08:46 2.6M
20260430T06Z_MSC_RDPS_SkyTransparencyIndex_EAtm_RLatLon0.09_PT023H.grib2 2026-04-30 08:46 689K
20260430T06Z_MSC_RDPS_Snow-Accum1h_Sfc_RLatLon0.09_PT023H.grib2 2026-04-30 08:46 439K
20260430T06Z_MSC_RDPS_Snow-Accum_Sfc_RLatLon0.09_PT023H.grib2 2026-04-30 08:46 666K
20260430T06Z_MSC_RDPS_SnowDensity_Sfc_RLatLon0.09_PT023H.grib2 2026-04-30 08:46 174K
20260430T06Z_MSC_RDPS_SnowDepth_Sfc_RLatLon0.09_PT023H.grib2 2026-04-30 08:46 672K
20260430T06Z_MSC_RDPS_SoilTemp_DBS-0to10cm_RLatLon0.09_PT023H.grib2 2026-04-30 08:46 222K
20260430T06Z_MSC_RDPS_SoilTemp_Sfc_RLatLon0.09_PT023H.grib2 2026-04-30 08:46 256K
20260430T06Z_MSC_RDPS_SoilVolumetricIceContent_Sfc_RLatLon0.09_PT023H.grib2 2026-04-30 08:46 162K
20260430T06Z_MSC_RDPS_SoilVolumetricWaterContent_DBS-0to10cm_RLatLon0.09_PT023H.grib2 2026-04-30 08:46 268K
20260430T06Z_MSC_RDPS_SoilVolumetricWaterContent_DBS-0to1cm_RLatLon0.09_PT023H.grib2 2026-04-30 08:46 336K
20260430T06Z_MSC_RDPS_SpecificHumidity_AGL-120m_RLatLon0.09_PT023H.grib2 2026-04-30 08:46 481K
20260430T06Z_MSC_RDPS_SpecificHumidity_AGL-2m_RLatLon0.09_PT023H.grib2 2026-04-30 08:46 645K
20260430T06Z_MSC_RDPS_SpecificHumidity_AGL-40m_RLatLon0.09_PT023H.grib2 2026-04-30 08:46 486K
20260430T06Z_MSC_RDPS_SpecificHumidity_AGL-80m_RLatLon0.09_PT023H.grib2 2026-04-30 08:46 482K
20260430T06Z_MSC_RDPS_SpecificHumidity_IsbL-0001_RLatLon0.09_PT023H.grib2 2026-04-30 08:46 389K
20260430T06Z_MSC_RDPS_SpecificHumidity_IsbL-0005_RLatLon0.09_PT023H.grib2 2026-04-30 08:46 364K
20260430T06Z_MSC_RDPS_SpecificHumidity_IsbL-0010_RLatLon0.09_PT023H.grib2 2026-04-30 08:46 396K
20260430T06Z_MSC_RDPS_SpecificHumidity_IsbL-0020_RLatLon0.09_PT023H.grib2 2026-04-30 08:46 388K
20260430T06Z_MSC_RDPS_SpecificHumidity_IsbL-0030_RLatLon0.09_PT023H.grib2 2026-04-30 08:46 371K
20260430T06Z_MSC_RDPS_SpecificHumidity_IsbL-0050_RLatLon0.09_PT023H.grib2 2026-04-30 08:46 487K
20260430T06Z_MSC_RDPS_SpecificHumidity_IsbL-0100_RLatLon0.09_PT023H.grib2 2026-04-30 08:46 541K
20260430T06Z_MSC_RDPS_SpecificHumidity_IsbL-0150_RLatLon0.09_PT023H.grib2 2026-04-30 08:46 452K
20260430T06Z_MSC_RDPS_SpecificHumidity_IsbL-0175_RLatLon0.09_PT023H.grib2 2026-04-30 08:46 531K
20260430T06Z_MSC_RDPS_SpecificHumidity_IsbL-0200_RLatLon0.09_PT023H.grib2 2026-04-30 08:46 445K
20260430T06Z_MSC_RDPS_SpecificHumidity_IsbL-0225_RLatLon0.09_PT023H.grib2 2026-04-30 08:46 451K
20260430T06Z_MSC_RDPS_SpecificHumidity_IsbL-0250_RLatLon0.09_PT023H.grib2 2026-04-30 08:46 562K
20260430T06Z_MSC_RDPS_SpecificHumidity_IsbL-0275_RLatLon0.09_PT023H.grib2 2026-04-30 08:46 477K
20260430T06Z_MSC_RDPS_SpecificHumidity_IsbL-0300_RLatLon0.09_PT023H.grib2 2026-04-30 08:46 552K
20260430T06Z_MSC_RDPS_SpecificHumidity_IsbL-0350_RLatLon0.09_PT023H.grib2 2026-04-30 08:46 542K
20260430T06Z_MSC_RDPS_SpecificHumidity_IsbL-0400_RLatLon0.09_PT023H.grib2 2026-04-30 08:46 521K
20260430T06Z_MSC_RDPS_SpecificHumidity_IsbL-0450_RLatLon0.09_PT023H.grib2 2026-04-30 08:46 573K
20260430T06Z_MSC_RDPS_SpecificHumidity_IsbL-0500_RLatLon0.09_PT023H.grib2 2026-04-30 08:46 504K
20260430T06Z_MSC_RDPS_SpecificHumidity_IsbL-0550_RLatLon0.09_PT023H.grib2 2026-04-30 08:46 579K
20260430T06Z_MSC_RDPS_SpecificHumidity_IsbL-0600_RLatLon0.09_PT023H.grib2 2026-04-30 08:46 638K
20260430T06Z_MSC_RDPS_SpecificHumidity_IsbL-0650_RLatLon0.09_PT023H.grib2 2026-04-30 08:46 555K
20260430T06Z_MSC_RDPS_SpecificHumidity_IsbL-0700_RLatLon0.09_PT023H.grib2 2026-04-30 08:46 598K
20260430T06Z_MSC_RDPS_SpecificHumidity_IsbL-0750_RLatLon0.09_PT023H.grib2 2026-04-30 08:46 649K
20260430T06Z_MSC_RDPS_SpecificHumidity_IsbL-0800_RLatLon0.09_PT023H.grib2 2026-04-30 08:46 723K
20260430T06Z_MSC_RDPS_SpecificHumidity_IsbL-0850_RLatLon0.09_PT023H.grib2 2026-04-30 08:46 791K
20260430T06Z_MSC_RDPS_SpecificHumidity_IsbL-0875_RLatLon0.09_PT023H.grib2 2026-04-30 08:46 817K
20260430T06Z_MSC_RDPS_SpecificHumidity_IsbL-0900_RLatLon0.09_PT023H.grib2 2026-04-30 08:46 833K
20260430T06Z_MSC_RDPS_SpecificHumidity_IsbL-0925_RLatLon0.09_PT023H.grib2 2026-04-30 08:46 835K
20260430T06Z_MSC_RDPS_SpecificHumidity_IsbL-0950_RLatLon0.09_PT023H.grib2 2026-04-30 08:46 837K
20260430T06Z_MSC_RDPS_SpecificHumidity_IsbL-0970_RLatLon0.09_PT023H.grib2 2026-04-30 08:46 824K
20260430T06Z_MSC_RDPS_SpecificHumidity_IsbL-0985_RLatLon0.09_PT023H.grib2 2026-04-30 08:46 673K
20260430T06Z_MSC_RDPS_SpecificHumidity_IsbL-1000_RLatLon0.09_PT023H.grib2 2026-04-30 08:46 664K
20260430T06Z_MSC_RDPS_SpecificHumidity_IsbL-1015_RLatLon0.09_PT023H.grib2 2026-04-30 08:46 653K
20260430T06Z_MSC_RDPS_SpecificHumidity_Sfc_RLatLon0.09_PT023H.grib2 2026-04-30 08:46 293K
20260430T06Z_MSC_RDPS_StormRelativeHelicity_EtaL-10000_RLatLon0.09_PT023H.grib2 2026-04-30 08:46 1.1M
20260430T06Z_MSC_RDPS_StormSeverityIndex_EtaL-10000_RLatLon0.09_PT023H.grib2 2026-04-30 08:46 1.2M
20260430T06Z_MSC_RDPS_Thickness_IsbL-0850to0700_RLatLon0.09_PT023H.grib2 2026-04-30 08:46 175K
20260430T06Z_MSC_RDPS_Thickness_IsbL-1000to0500_RLatLon0.09_PT023H.grib2 2026-04-30 08:46 196K
20260430T06Z_MSC_RDPS_Thickness_IsbL-1000to0850_RLatLon0.09_PT023H.grib2 2026-04-30 08:46 257K
20260430T06Z_MSC_RDPS_TotalCloudCover_Sfc_RLatLon0.09_PT023H.grib2 2026-04-30 08:46 656K
20260430T06Z_MSC_RDPS_TotalTotalsIndex_Sfc_RLatLon0.09_PT023H.grib2 2026-04-30 08:46 2.4M
20260430T06Z_MSC_RDPS_UVIndex-ClearSky_Sfc_RLatLon0.09_PT023H.grib2 2026-04-30 08:46 100K
20260430T06Z_MSC_RDPS_UVIndex_Sfc_RLatLon0.09_PT023H.grib2 2026-04-30 08:46 171K
20260430T06Z_MSC_RDPS_UpwardLongwaveRadiationFlux_NTAtm_RLatLon0.09_PT023H.grib2 2026-04-30 08:46 484K
20260430T06Z_MSC_RDPS_UpwardShortwaveRadiationFlux_NTAtm_RLatLon0.09_PT023H.grib2 2026-04-30 08:46 142K
20260430T06Z_MSC_RDPS_VerticalVelocity_IsbL-0250_RLatLon0.09_PT023H.grib2 2026-04-30 08:46 549K
20260430T06Z_MSC_RDPS_VerticalVelocity_IsbL-0500_RLatLon0.09_PT023H.grib2 2026-04-30 08:46 538K
20260430T06Z_MSC_RDPS_VerticalVelocity_IsbL-0700_RLatLon0.09_PT023H.grib2 2026-04-30 08:46 587K
20260430T06Z_MSC_RDPS_VerticalVelocity_IsbL-0850_RLatLon0.09_PT023H.grib2 2026-04-30 08:46 696K
20260430T06Z_MSC_RDPS_VerticalWindShear_EtaL-6500_RLatLon0.09_PT023H.grib2 2026-04-30 08:46 1.2M
20260430T06Z_MSC_RDPS_WindChill_Sfc_RLatLon0.09_PT023H.grib2 2026-04-30 08:46 1.1M
20260430T06Z_MSC_RDPS_WindDir_AGL-10m_RLatLon0.09_PT023H.grib2 2026-04-30 08:46 971K
20260430T06Z_MSC_RDPS_WindDir_AGL-120m_RLatLon0.09_PT023H.grib2 2026-04-30 08:46 598K
20260430T06Z_MSC_RDPS_WindDir_AGL-40m_RLatLon0.09_PT023H.grib2 2026-04-30 08:46 636K
20260430T06Z_MSC_RDPS_WindDir_AGL-80m_RLatLon0.09_PT023H.grib2 2026-04-30 08:46 613K
20260430T06Z_MSC_RDPS_WindDir_IsbL-0001_RLatLon0.09_PT023H.grib2 2026-04-30 08:46 312K
20260430T06Z_MSC_RDPS_WindDir_IsbL-0005_RLatLon0.09_PT023H.grib2 2026-04-30 08:46 358K
20260430T06Z_MSC_RDPS_WindDir_IsbL-0010_RLatLon0.09_PT023H.grib2 2026-04-30 08:46 383K
20260430T06Z_MSC_RDPS_WindDir_IsbL-0020_RLatLon0.09_PT023H.grib2 2026-04-30 08:46 428K
20260430T06Z_MSC_RDPS_WindDir_IsbL-0030_RLatLon0.09_PT023H.grib2 2026-04-30 08:46 433K
20260430T06Z_MSC_RDPS_WindDir_IsbL-0050_RLatLon0.09_PT023H.grib2 2026-04-30 08:46 424K
20260430T06Z_MSC_RDPS_WindDir_IsbL-0100_RLatLon0.09_PT023H.grib2 2026-04-30 08:46 433K
20260430T06Z_MSC_RDPS_WindDir_IsbL-0150_RLatLon0.09_PT023H.grib2 2026-04-30 08:46 433K
20260430T06Z_MSC_RDPS_WindDir_IsbL-0175_RLatLon0.09_PT023H.grib2 2026-04-30 08:46 450K
20260430T06Z_MSC_RDPS_WindDir_IsbL-0200_RLatLon0.09_PT023H.grib2 2026-04-30 08:46 457K
20260430T06Z_MSC_RDPS_WindDir_IsbL-0225_RLatLon0.09_PT023H.grib2 2026-04-30 08:46 460K
20260430T06Z_MSC_RDPS_WindDir_IsbL-0250_RLatLon0.09_PT023H.grib2 2026-04-30 08:46 461K
20260430T06Z_MSC_RDPS_WindDir_IsbL-0275_RLatLon0.09_PT023H.grib2 2026-04-30 08:46 483K
20260430T06Z_MSC_RDPS_WindDir_IsbL-0300_RLatLon0.09_PT023H.grib2 2026-04-30 08:46 478K
20260430T06Z_MSC_RDPS_WindDir_IsbL-0350_RLatLon0.09_PT023H.grib2 2026-04-30 08:46 495K
20260430T06Z_MSC_RDPS_WindDir_IsbL-0400_RLatLon0.09_PT023H.grib2 2026-04-30 08:46 510K
20260430T06Z_MSC_RDPS_WindDir_IsbL-0450_RLatLon0.09_PT023H.grib2 2026-04-30 08:46 521K
20260430T06Z_MSC_RDPS_WindDir_IsbL-0500_RLatLon0.09_PT023H.grib2 2026-04-30 08:46 537K
20260430T06Z_MSC_RDPS_WindDir_IsbL-0550_RLatLon0.09_PT023H.grib2 2026-04-30 08:46 557K
20260430T06Z_MSC_RDPS_WindDir_IsbL-0600_RLatLon0.09_PT023H.grib2 2026-04-30 08:46 587K
20260430T06Z_MSC_RDPS_WindDir_IsbL-0650_RLatLon0.09_PT023H.grib2 2026-04-30 08:46 631K
20260430T06Z_MSC_RDPS_WindDir_IsbL-0700_RLatLon0.09_PT023H.grib2 2026-04-30 08:46 683K
20260430T06Z_MSC_RDPS_WindDir_IsbL-0750_RLatLon0.09_PT023H.grib2 2026-04-30 08:46 730K
20260430T06Z_MSC_RDPS_WindDir_IsbL-0800_RLatLon0.09_PT023H.grib2 2026-04-30 08:46 790K
20260430T06Z_MSC_RDPS_WindDir_IsbL-0850_RLatLon0.09_PT023H.grib2 2026-04-30 08:46 856K
20260430T06Z_MSC_RDPS_WindDir_IsbL-0875_RLatLon0.09_PT023H.grib2 2026-04-30 08:46 882K
20260430T06Z_MSC_RDPS_WindDir_IsbL-0900_RLatLon0.09_PT023H.grib2 2026-04-30 08:46 900K
20260430T06Z_MSC_RDPS_WindDir_IsbL-0925_RLatLon0.09_PT023H.grib2 2026-04-30 08:46 910K
20260430T06Z_MSC_RDPS_WindDir_IsbL-0950_RLatLon0.09_PT023H.grib2 2026-04-30 08:46 914K
20260430T06Z_MSC_RDPS_WindDir_IsbL-0970_RLatLon0.09_PT023H.grib2 2026-04-30 08:46 921K
20260430T06Z_MSC_RDPS_WindDir_IsbL-0985_RLatLon0.09_PT023H.grib2 2026-04-30 08:46 929K
20260430T06Z_MSC_RDPS_WindDir_IsbL-1000_RLatLon0.09_PT023H.grib2 2026-04-30 08:46 945K
20260430T06Z_MSC_RDPS_WindDir_IsbL-1015_RLatLon0.09_PT023H.grib2 2026-04-30 08:46 964K
20260430T06Z_MSC_RDPS_WindGust-Max_AGL-10m_RLatLon0.09_PT023H.grib2 2026-04-30 08:46 1.0M
20260430T06Z_MSC_RDPS_WindGust-Min_AGL-10m_RLatLon0.09_PT023H.grib2 2026-04-30 08:46 957K
20260430T06Z_MSC_RDPS_WindGust_AGL-10m_RLatLon0.09_PT023H.grib2 2026-04-30 08:46 1.0M
20260430T06Z_MSC_RDPS_WindSpeed_AGL-10m_RLatLon0.09_PT023H.grib2 2026-04-30 08:46 829K
20260430T06Z_MSC_RDPS_WindSpeed_AGL-120m_RLatLon0.09_PT023H.grib2 2026-04-30 08:46 534K
20260430T06Z_MSC_RDPS_WindSpeed_AGL-40m_RLatLon0.09_PT023H.grib2 2026-04-30 08:46 535K
20260430T06Z_MSC_RDPS_WindSpeed_AGL-80m_RLatLon0.09_PT023H.grib2 2026-04-30 08:46 535K
20260430T06Z_MSC_RDPS_WindSpeed_IsbL-0001_RLatLon0.09_PT023H.grib2 2026-04-30 08:46 252K
20260430T06Z_MSC_RDPS_WindSpeed_IsbL-0005_RLatLon0.09_PT023H.grib2 2026-04-30 08:46 380K
20260430T06Z_MSC_RDPS_WindSpeed_IsbL-0010_RLatLon0.09_PT023H.grib2 2026-04-30 08:46 395K
20260430T06Z_MSC_RDPS_WindSpeed_IsbL-0020_RLatLon0.09_PT023H.grib2 2026-04-30 08:46 320K
20260430T06Z_MSC_RDPS_WindSpeed_IsbL-0030_RLatLon0.09_PT023H.grib2 2026-04-30 08:46 322K
20260430T06Z_MSC_RDPS_WindSpeed_IsbL-0050_RLatLon0.09_PT023H.grib2 2026-04-30 08:46 449K
20260430T06Z_MSC_RDPS_WindSpeed_IsbL-0100_RLatLon0.09_PT023H.grib2 2026-04-30 08:46 472K
20260430T06Z_MSC_RDPS_WindSpeed_IsbL-0150_RLatLon0.09_PT023H.grib2 2026-04-30 08:46 381K
20260430T06Z_MSC_RDPS_WindSpeed_IsbL-0175_RLatLon0.09_PT023H.grib2 2026-04-30 08:46 428K
20260430T06Z_MSC_RDPS_WindSpeed_IsbL-0200_RLatLon0.09_PT023H.grib2 2026-04-30 08:46 443K
20260430T06Z_MSC_RDPS_WindSpeed_IsbL-0225_RLatLon0.09_PT023H.grib2 2026-04-30 08:46 450K
20260430T06Z_MSC_RDPS_WindSpeed_IsbL-0250_RLatLon0.09_PT023H.grib2 2026-04-30 08:46 454K
20260430T06Z_MSC_RDPS_WindSpeed_IsbL-0275_RLatLon0.09_PT023H.grib2 2026-04-30 08:46 472K
20260430T06Z_MSC_RDPS_WindSpeed_IsbL-0300_RLatLon0.09_PT023H.grib2 2026-04-30 08:46 468K
20260430T06Z_MSC_RDPS_WindSpeed_IsbL-0350_RLatLon0.09_PT023H.grib2 2026-04-30 08:46 478K
20260430T06Z_MSC_RDPS_WindSpeed_IsbL-0400_RLatLon0.09_PT023H.grib2 2026-04-30 08:46 479K
20260430T06Z_MSC_RDPS_WindSpeed_IsbL-0450_RLatLon0.09_PT023H.grib2 2026-04-30 08:46 478K
20260430T06Z_MSC_RDPS_WindSpeed_IsbL-0500_RLatLon0.09_PT023H.grib2 2026-04-30 08:46 461K
20260430T06Z_MSC_RDPS_WindSpeed_IsbL-0550_RLatLon0.09_PT023H.grib2 2026-04-30 08:46 461K
20260430T06Z_MSC_RDPS_WindSpeed_IsbL-0600_RLatLon0.09_PT023H.grib2 2026-04-30 08:46 470K
20260430T06Z_MSC_RDPS_WindSpeed_IsbL-0650_RLatLon0.09_PT023H.grib2 2026-04-30 08:46 492K
20260430T06Z_MSC_RDPS_WindSpeed_IsbL-0700_RLatLon0.09_PT023H.grib2 2026-04-30 08:46 639K
20260430T06Z_MSC_RDPS_WindSpeed_IsbL-0750_RLatLon0.09_PT023H.grib2 2026-04-30 08:46 667K
20260430T06Z_MSC_RDPS_WindSpeed_IsbL-0800_RLatLon0.09_PT023H.grib2 2026-04-30 08:46 751K
20260430T06Z_MSC_RDPS_WindSpeed_IsbL-0850_RLatLon0.09_PT023H.grib2 2026-04-30 08:46 804K
20260430T06Z_MSC_RDPS_WindSpeed_IsbL-0875_RLatLon0.09_PT023H.grib2 2026-04-30 08:46 824K
20260430T06Z_MSC_RDPS_WindSpeed_IsbL-0900_RLatLon0.09_PT023H.grib2 2026-04-30 08:46 841K
20260430T06Z_MSC_RDPS_WindSpeed_IsbL-0925_RLatLon0.09_PT023H.grib2 2026-04-30 08:46 853K
20260430T06Z_MSC_RDPS_WindSpeed_IsbL-0950_RLatLon0.09_PT023H.grib2 2026-04-30 08:46 855K
20260430T06Z_MSC_RDPS_WindSpeed_IsbL-0970_RLatLon0.09_PT023H.grib2 2026-04-30 08:46 856K
20260430T06Z_MSC_RDPS_WindSpeed_IsbL-0985_RLatLon0.09_PT023H.grib2 2026-04-30 08:46 848K
20260430T06Z_MSC_RDPS_WindSpeed_IsbL-1000_RLatLon0.09_PT023H.grib2 2026-04-30 08:46 840K
20260430T06Z_MSC_RDPS_WindSpeed_IsbL-1015_RLatLon0.09_PT023H.grib2 2026-04-30 08:46 830K
20260430T06Z_MSC_RDPS_WindU_AGL-10m_RLatLon0.09_PT023H.grib2 2026-04-30 08:46 427K
20260430T06Z_MSC_RDPS_WindU_AGL-120m_RLatLon0.09_PT023H.grib2 2026-04-30 08:46 532K
20260430T06Z_MSC_RDPS_WindU_AGL-40m_RLatLon0.09_PT023H.grib2 2026-04-30 08:46 535K
20260430T06Z_MSC_RDPS_WindU_AGL-80m_RLatLon0.09_PT023H.grib2 2026-04-30 08:46 534K
20260430T06Z_MSC_RDPS_WindU_IsbL-0001_RLatLon0.09_PT023H.grib2 2026-04-30 08:46 242K
20260430T06Z_MSC_RDPS_WindU_IsbL-0005_RLatLon0.09_PT023H.grib2 2026-04-30 08:46 285K
20260430T06Z_MSC_RDPS_WindU_IsbL-0010_RLatLon0.09_PT023H.grib2 2026-04-30 08:46 296K
20260430T06Z_MSC_RDPS_WindU_IsbL-0020_RLatLon0.09_PT023H.grib2 2026-04-30 08:46 310K
20260430T06Z_MSC_RDPS_WindU_IsbL-0030_RLatLon0.09_PT023H.grib2 2026-04-30 08:46 312K
20260430T06Z_MSC_RDPS_WindU_IsbL-0050_RLatLon0.09_PT023H.grib2 2026-04-30 08:46 341K
20260430T06Z_MSC_RDPS_WindU_IsbL-0100_RLatLon0.09_PT023H.grib2 2026-04-30 08:46 428K
20260430T06Z_MSC_RDPS_WindU_IsbL-0150_RLatLon0.09_PT023H.grib2 2026-04-30 08:46 398K
20260430T06Z_MSC_RDPS_WindU_IsbL-0175_RLatLon0.09_PT023H.grib2 2026-04-30 08:46 421K
20260430T06Z_MSC_RDPS_WindU_IsbL-0200_RLatLon0.09_PT023H.grib2 2026-04-30 08:46 338K
20260430T06Z_MSC_RDPS_WindU_IsbL-0225_RLatLon0.09_PT023H.grib2 2026-04-30 08:46 343K
20260430T06Z_MSC_RDPS_WindU_IsbL-0250_RLatLon0.09_PT023H.grib2 2026-04-30 08:46 345K
20260430T06Z_MSC_RDPS_WindU_IsbL-0275_RLatLon0.09_PT023H.grib2 2026-04-30 08:46 360K
20260430T06Z_MSC_RDPS_WindU_IsbL-0300_RLatLon0.09_PT023H.grib2 2026-04-30 08:46 355K
20260430T06Z_MSC_RDPS_WindU_IsbL-0350_RLatLon0.09_PT023H.grib2 2026-04-30 08:46 363K
20260430T06Z_MSC_RDPS_WindU_IsbL-0400_RLatLon0.09_PT023H.grib2 2026-04-30 08:46 364K
20260430T06Z_MSC_RDPS_WindU_IsbL-0450_RLatLon0.09_PT023H.grib2 2026-04-30 08:46 365K
20260430T06Z_MSC_RDPS_WindU_IsbL-0500_RLatLon0.09_PT023H.grib2 2026-04-30 08:46 468K
20260430T06Z_MSC_RDPS_WindU_IsbL-0550_RLatLon0.09_PT023H.grib2 2026-04-30 08:46 468K
20260430T06Z_MSC_RDPS_WindU_IsbL-0600_RLatLon0.09_PT023H.grib2 2026-04-30 08:46 478K
20260430T06Z_MSC_RDPS_WindU_IsbL-0650_RLatLon0.09_PT023H.grib2 2026-04-30 08:46 483K
20260430T06Z_MSC_RDPS_WindU_IsbL-0700_RLatLon0.09_PT023H.grib2 2026-04-30 08:46 507K
20260430T06Z_MSC_RDPS_WindU_IsbL-0750_RLatLon0.09_PT023H.grib2 2026-04-30 08:46 532K
20260430T06Z_MSC_RDPS_WindU_IsbL-0800_RLatLon0.09_PT023H.grib2 2026-04-30 08:46 567K
20260430T06Z_MSC_RDPS_WindU_IsbL-0850_RLatLon0.09_PT023H.grib2 2026-04-30 08:46 614K
20260430T06Z_MSC_RDPS_WindU_IsbL-0875_RLatLon0.09_PT023H.grib2 2026-04-30 08:46 630K
20260430T06Z_MSC_RDPS_WindU_IsbL-0900_RLatLon0.09_PT023H.grib2 2026-04-30 08:46 643K
20260430T06Z_MSC_RDPS_WindU_IsbL-0925_RLatLon0.09_PT023H.grib2 2026-04-30 08:46 653K
20260430T06Z_MSC_RDPS_WindU_IsbL-0950_RLatLon0.09_PT023H.grib2 2026-04-30 08:46 654K
20260430T06Z_MSC_RDPS_WindU_IsbL-0970_RLatLon0.09_PT023H.grib2 2026-04-30 08:46 793K
20260430T06Z_MSC_RDPS_WindU_IsbL-0985_RLatLon0.09_PT023H.grib2 2026-04-30 08:46 786K
20260430T06Z_MSC_RDPS_WindU_IsbL-1000_RLatLon0.09_PT023H.grib2 2026-04-30 08:46 780K
20260430T06Z_MSC_RDPS_WindU_IsbL-1015_RLatLon0.09_PT023H.grib2 2026-04-30 08:46 820K
20260430T06Z_MSC_RDPS_WindV_AGL-10m_RLatLon0.09_PT023H.grib2 2026-04-30 08:46 425K
20260430T06Z_MSC_RDPS_WindV_AGL-120m_RLatLon0.09_PT023H.grib2 2026-04-30 08:46 529K
20260430T06Z_MSC_RDPS_WindV_AGL-40m_RLatLon0.09_PT023H.grib2 2026-04-30 08:46 529K
20260430T06Z_MSC_RDPS_WindV_AGL-80m_RLatLon0.09_PT023H.grib2 2026-04-30 08:46 529K
20260430T06Z_MSC_RDPS_WindV_IsbL-0001_RLatLon0.09_PT023H.grib2 2026-04-30 08:46 244K
20260430T06Z_MSC_RDPS_WindV_IsbL-0005_RLatLon0.09_PT023H.grib2 2026-04-30 08:46 286K
20260430T06Z_MSC_RDPS_WindV_IsbL-0010_RLatLon0.09_PT023H.grib2 2026-04-30 08:46 298K
20260430T06Z_MSC_RDPS_WindV_IsbL-0020_RLatLon0.09_PT023H.grib2 2026-04-30 08:46 314K
20260430T06Z_MSC_RDPS_WindV_IsbL-0030_RLatLon0.09_PT023H.grib2 2026-04-30 08:46 315K
20260430T06Z_MSC_RDPS_WindV_IsbL-0050_RLatLon0.09_PT023H.grib2 2026-04-30 08:46 341K
20260430T06Z_MSC_RDPS_WindV_IsbL-0100_RLatLon0.09_PT023H.grib2 2026-04-30 08:46 331K
20260430T06Z_MSC_RDPS_WindV_IsbL-0150_RLatLon0.09_PT023H.grib2 2026-04-30 08:46 394K
20260430T06Z_MSC_RDPS_WindV_IsbL-0175_RLatLon0.09_PT023H.grib2 2026-04-30 08:46 419K
20260430T06Z_MSC_RDPS_WindV_IsbL-0200_RLatLon0.09_PT023H.grib2 2026-04-30 08:46 432K
20260430T06Z_MSC_RDPS_WindV_IsbL-0225_RLatLon0.09_PT023H.grib2 2026-04-30 08:46 438K
20260430T06Z_MSC_RDPS_WindV_IsbL-0250_RLatLon0.09_PT023H.grib2 2026-04-30 08:46 441K
20260430T06Z_MSC_RDPS_WindV_IsbL-0275_RLatLon0.09_PT023H.grib2 2026-04-30 08:46 358K
20260430T06Z_MSC_RDPS_WindV_IsbL-0300_RLatLon0.09_PT023H.grib2 2026-04-30 08:46 453K
20260430T06Z_MSC_RDPS_WindV_IsbL-0350_RLatLon0.09_PT023H.grib2 2026-04-30 08:46 464K
20260430T06Z_MSC_RDPS_WindV_IsbL-0400_RLatLon0.09_PT023H.grib2 2026-04-30 08:46 465K
20260430T06Z_MSC_RDPS_WindV_IsbL-0450_RLatLon0.09_PT023H.grib2 2026-04-30 08:46 465K
20260430T06Z_MSC_RDPS_WindV_IsbL-0500_RLatLon0.09_PT023H.grib2 2026-04-30 08:46 465K
20260430T06Z_MSC_RDPS_WindV_IsbL-0550_RLatLon0.09_PT023H.grib2 2026-04-30 08:46 466K
20260430T06Z_MSC_RDPS_WindV_IsbL-0600_RLatLon0.09_PT023H.grib2 2026-04-30 08:46 475K
20260430T06Z_MSC_RDPS_WindV_IsbL-0650_RLatLon0.09_PT023H.grib2 2026-04-30 08:46 480K
20260430T06Z_MSC_RDPS_WindV_IsbL-0700_RLatLon0.09_PT023H.grib2 2026-04-30 08:46 502K
20260430T06Z_MSC_RDPS_WindV_IsbL-0750_RLatLon0.09_PT023H.grib2 2026-04-30 08:46 527K
20260430T06Z_MSC_RDPS_WindV_IsbL-0800_RLatLon0.09_PT023H.grib2 2026-04-30 08:46 562K
20260430T06Z_MSC_RDPS_WindV_IsbL-0850_RLatLon0.09_PT023H.grib2 2026-04-30 08:46 610K
20260430T06Z_MSC_RDPS_WindV_IsbL-0875_RLatLon0.09_PT023H.grib2 2026-04-30 08:46 628K
20260430T06Z_MSC_RDPS_WindV_IsbL-0900_RLatLon0.09_PT023H.grib2 2026-04-30 08:46 642K
20260430T06Z_MSC_RDPS_WindV_IsbL-0925_RLatLon0.09_PT023H.grib2 2026-04-30 08:46 789K
20260430T06Z_MSC_RDPS_WindV_IsbL-0950_RLatLon0.09_PT023H.grib2 2026-04-30 08:46 790K
20260430T06Z_MSC_RDPS_WindV_IsbL-0970_RLatLon0.09_PT023H.grib2 2026-04-30 08:46 789K
20260430T06Z_MSC_RDPS_WindV_IsbL-0985_RLatLon0.09_PT023H.grib2 2026-04-30 08:46 781K
20260430T06Z_MSC_RDPS_WindV_IsbL-1000_RLatLon0.09_PT023H.grib2 2026-04-30 08:46 820K
20260430T06Z_MSC_RDPS_WindV_IsbL-1015_RLatLon0.09_PT023H.grib2 2026-04-30 08:46 812K